Theta_e
296 298 306 305 305 304 301 300 301 304 306 312 316 318 322 327 330 327 328 326 325 322 322 323 323 322 321 319 319 318 316 315 314 314 315 315 315 316 316 316 316 315 315 315
301 306 307 304 305 304 305 306 306 307 308 315 317 321 320 326 329 326 327 327 327 324 324 323 322 319 317 316 315 315 313 312 313 314 314 314 316 315 315 315 314 313 313 313
297 303 303 299 305 305 308 308 308 304 308 314 316 321 321 324 329 327 327 327 322 321 319 319 318 317 314 314 313 312 311 312 313 313 314 319 318 316 314 314 314 311 311 312
295 299 293 302 309 312 311 314 312 315 316 316 319 320 321 325 328 327 327 322 319 318 317 315 315 314 313 312 311 310 310 311 313 313 316 317 315 314 311 312 311 309 309 310
297 295 300 307 308 310 309 311 318 318 324 326 325 323 320 329 328 325 320 318 318 318 315 314 314 312 311 310 310 310 310 310 312 312 311 311 311 308 307 307 307 308 307 307
297 296 295 303 310 316 316 308 321 324 325 323 323 313 315 324 321 319 319 318 315 312 314 314 312 311 309 308 308 308 310 311 311 311 309 308 308 307 305 305 305 306 306 305
298 297 302 309 314 315 302 305 324 326 326 324 319 318 318 318 318 320 316 313 312 312 313 312 311 310 308 307 307 309 314 314 312 311 309 307 306 306 305 304 303 302 302 302
299 297 296 314 313 310 313 317 327 327 326 323 316 317 316 316 316 314 311 311 311 310 311 312 311 310 307 307 309 309 310 310 309 309 311 309 305 305 305 304 302 301 300 301
303 303 308 312 312 313 319 325 326 325 323 319 317 315 315 313 312 311 310 308 308 308 308 310 311 310 307 308 308 308 308 307 306 308 309 307 306 305 304 303 302 301 300 299
304 309 310 314 315 317 321 321 325 323 320 319 315 313 310 308 307 307 307 306 306 308 309 309 309 310 309 309 309 307 306 305 305 304 305 304 305 305 304 303 302 302 301 299
306 310 314 317 319 322 322 322 321 322 320 318 314 309 307 305 305 305 305 305 305 305 305 305 305 305 306 307 307 306 305 305 304 303 303 304 304 304 305 305 305 304 302 300
304 310 309 313 320 323 321 321 321 319 317 317 312 308 306 304 305 305 303 303 303 303 305 305 304 303 304 305 305 302 301 302 303 303 301 302 303 304 305 306 305 301 301 302
312 316 316 319 322 323 321 321 321 320 317 311 309 307 306 304 303 306 303 303 303 303 305 304 302 301 303 304 304 302 300 301 301 298 298 300 300 301 300 301 302 301 299 299
319 320 316 318 316 321 320 317 315 313 312 310 308 308 307 306 305 304 302 303 304 305 304 303 303 304 306 305 303 301 301 305 302 299 298 300 297 297 298 297 297 298 299 299
320 320 318 318 318 316 316 315 312 310 309 308 309 308 307 304 303 303 303 303 304 303 304 304 304 305 306 306 302 301 302 302 302 300 299 300 299 298 298 298 297 296 296 298
321 319 319 317 315 315 314 313 309 307 308 308 307 306 305 305 304 303 302 303 303 302 303 305 305 306 307 307 307 306 305 309 310 304 303 300 300 301 300 300 299 297 297 296
318 315 315 314 313 313 312 312 310 308 308 308 307 306 306 304 302 302 302 303 303 303 304 304 305 306 306 307 307 307 307 307 311 304 304 301 301 303 302 301 300 299 299 299
322 321 319 317 314 313 312 312 310 309 308 309 308 307 305 304 303 302 303 303 304 304 305 306 307 307 308 308 307 307 309 307 303 304 304 304 304 305 304 303 302 301 301 301
321 320 319 318 316 314 313 312 311 310 310 309 308 306 305 304 303 303 303 304 303 303 306 307 313 315 311 312 314 309 309 306 303 305 305 306 305 305 307 306 304 304 303 303
320 320 319 317 316 315 312 311 310 310 310 309 307 304 303 303 304 305 305 305 306 307 309 310 308 307 307 308 316 311 307 304 303 306 307 307 305 305 307 304 307 308 305 304
320 320 319 316 314 313 313 311 310 308 308 309 307 305 304 304 305 304 303 302 306 307 308 313 309 308 307 311 311 306 304 302 303 303 304 306 306 306 306 309 309 307 305 304
319 317 315 314 312 311 311 310 310 309 307 306 306 305 305 304 303 304 304 305 306 309 310 309 309 312 310 317 309 306 303 302 302 303 304 306 306 308 309 307 306 306 305 304
317 315 314 312 311 309 310 310 309 308 307 306 306 305 305 305 305 304 304 307 307 309 309 306 308 311 312 309 308 306 305 304 304 304 305 305 306 306 304 303 303 304 303 304
315 314 312 312 312 311 308 307 308 307 307 306 307 307 306 305 306 307 307 307 308 309 310 310 309 311 311 307 307 306 305 305 305 305 304 301 303 303 302 302 302 303 303 302
314 313 313 312 311 309 308 307 307 307 307 306 307 307 307 307 308 308 309 310 309 309 312 311 311 311 310 309 310 308 307 304 303 303 302 301 299 298 298 300 300 299 298 297
313 313 312 312 310 310 308 308 306 305 305 305 306 308 309 309 309 308 306 307 309 309 308 311 311 310 310 311 310 306 302 302 301 302 299 298 297 297 297 298 297 296 294 293
311 308 310 309 308 309 309 306 306 306 306 307 307 309 311 310 310 309 306 306 307 308 308 310 311 310 311 309 304 302 301 301 299 300 298 296 295 295 296 295 294 293 292 291
Wind_Speed
6 6 5 3 5 6 5 8 9 8 10 16 21 16 14 7 6 11 12 9 6 6 6 5 8 7 7 6 7 7 8 8 6 3 5 5 5 6 6 6 6 6 6 7
4 3 4 4 4 4 2 4 7 7 0 8 6 10 8 10 9 10 11 10 8 10 9 9 9 7 7 6 5 4 6 5 5 6 3 2 6 6 6 6 5 5 6 6
5 3 4 2 4 2 4 2 8 7 9 8 7 14 15 13 10 11 9 8 8 9 9 8 8 7 7 6 4 6 6 4 2 3 5 7 7 6 6 6 6 6 6 6
4 3 3 7 2 5 7 1 4 7 8 14 11 5 8 7 8 11 9 9 11 9 8 8 7 7 7 5 6 5 5 5 5 5 6 6 7 7 8 7 7 8 8 7
7 3 4 2 3 9 9 4 6 12 9 9 10 6 5 6 5 6 7 9 10 8 9 8 8 7 7 6 7 7 6 6 6 6 6 6 6 6 6 5 6 6 7 8
3 5 6 8 3 6 5 0 6 8 16 19 11 4 5 7 7 9 12 11 11 9 8 9 6 6 9 7 6 5 3 4 4 4 4 5 4 4 3 3 5 6 8 7
4 3 7 6 6 5 8 9 11 14 19 17 7 5 9 12 10 12 12 13 9 7 8 7 6 6 8 5 4 1 5 5 3 1 1 1 2 3 3 5 5 6 6 7
4 4 3 7 4 11 8 3 19 14 17 12 9 15 16 14 14 14 14 12 9 9 8 6 6 7 5 4 1 2 3 3 2 2 2 0 3 4 4 5 6 6 7 7
9 10 5 8 6 5 7 15 11 16 9 13 17 17 17 13 13 12 12 9 6 9 7 5 5 5 5 2 1 2 0 1 2 2 3 3 3 5 4 4 4 5 4 5
1 4 4 7 4 5 7 8 12 12 19 19 19 17 16 12 11 10 9 8 6 8 8 6 4 4 3 2 1 2 0 1 3 4 5 4 3 3 4 4 4 4 4 4
3 4 7 7 6 12 14 17 18 14 18 20 20 16 16 12 11 10 9 6 6 7 6 6 4 4 3 2 2 1 2 3 5 4 5 6 4 4 4 6 6 5 4 3
6 5 3 5 7 12 19 19 21 23 15 11 18 19 15 11 10 11 10 7 7 6 7 5 4 3 2 1 1 0 3 3 2 3 4 3 4 6 9 14 15 10 10 7
4 5 2 9 11 12 18 18 17 19 18 19 13 17 14 13 7 10 8 8 8 9 8 7 4 2 0 2 1 2 3 4 3 3 4 3 2 3 4 6 7 7 4 12
2 15 9 5 8 11 20 18 19 17 15 15 17 13 12 11 9 9 8 8 7 8 8 5 4 1 1 1 1 2 2 6 3 3 3 4 4 4 3 3 4 5 6 3
9 9 11 15 14 16 15 20 18 16 17 15 12 13 13 12 10 8 7 7 7 7 6 4 2 3 1 1 1 3 3 3 4 4 5 5 4 5 4 4 4 4 4 5
7 6 14 18 16 16 17 14 20 15 14 13 12 10 9 8 8 8 7 7 7 6 5 4 3 4 3 2 3 3 4 5 6 4 4 4 4 4 5 4 5 4 4 4
17 11 7 11 15 15 14 14 16 15 14 13 12 10 10 10 8 7 7 6 6 6 5 4 6 3 4 4 4 4 4 4 7 4 4 4 4 5 4 4 5 4 5 5
20 20 19 23 18 15 14 14 15 16 15 14 13 11 11 12 11 8 7 5 4 1 4 6 6 6 6 6 5 5 4 4 4 4 3 4 4 4 4 5 5 5 5 4
13 16 14 15 16 16 16 15 14 13 12 14 14 13 12 9 9 7 6 5 3 1 7 5 8 6 6 8 7 4 4 4 5 4 4 5 5 5 5 6 5 5 5 5
13 13 14 15 15 18 15 12 14 13 12 13 9 9 8 7 7 8 7 6 6 6 5 7 3 5 6 7 7 3 4 5 6 5 4 5 5 6 5 6 6 7 6 4
17 17 15 14 12 12 14 15 15 12 9 11 12 10 9 7 6 6 6 3 6 6 7 8 4 5 4 6 5 5 5 5 5 5 5 5 6 5 5 6 6 5 5 4
16 16 15 14 14 11 11 12 13 11 10 8 7 8 8 7 6 5 3 5 3 5 3 3 4 8 7 10 4 5 6 5 5 5 5 5 4 4 4 5 5 6 5 5
13 14 13 14 15 13 11 11 12 12 11 9 9 8 7 5 5 4 1 4 5 5 3 5 7 9 10 5 5 5 6 5 5 4 3 2 2 3 3 4 5 5 5 5
14 13 13 13 14 14 13 5 8 8 9 7 8 8 7 4 2 4 4 3 6 7 6 6 7 11 8 5 5 4 4 3 1 1 2 3 2 3 4 5 5 5 5 6
13 13 15 14 13 8 9 7 7 6 7 6 6 6 7 4 4 1 3 5 8 6 5 8 9 9 5 5 3 2 2 3 3 3 3 2 2 4 4 4 4 4 4 4
14 10 9 11 10 8 7 7 6 5 5 4 3 3 2 1 1 3 3 5 5 5 5 4 5 5 5 4 2 3 3 3 3 3 3 2 2 3 3 3 4 4 4 4
9 10 8 7 4 6 7 6 6 5 5 5 4 3 3 2 3 4 5 4 4 5 6 5 5 4 1 4 4 3 3 3 4 3 1 1 2 2 2 3 3 3 3 4
Wind_Direction
230 226 170 218 251 186 179 166 147 206 184 181 185 175 185 168 153 132 130 136 147 132 131 118 95 78 73 72 62 54 59 52 40 10 16 12 5 8 1 359 357 353 350 350
203 236 216 230 22 114 84 129 76 98 137 114 118 128 150 169 163 148 152 160 150 137 132 123 112 108 100 100 101 99 76 64 31 14 338 4 25 5 2 345 347 359 351 343
215 161 129 12 182 133 117 69 143 148 213 146 156 165 174 168 167 160 160 159 121 129 130 122 121 138 124 110 98 80 75 63 48 17 15 21 17 6 1 351 352 351 346 350
141 92 192 234 210 209 125 77 149 112 146 177 175 115 134 144 154 153 161 121 121 125 121 116 123 118 110 107 94 91 73 48 33 18 26 24 23 10 2 351 348 352 358 357
124 154 264 238 178 151 140 212 212 137 123 110 101 85 69 152 141 137 122 120 128 134 126 132 128 121 113 88 72 62 45 31 23 34 34 27 28 14 358 3 348 350 351 349
122 135 186 227 202 137 96 185 181 144 138 139 153 118 226 157 119 106 108 118 122 118 127 114 108 89 78 74 73 65 37 52 46 54 35 16 15 357 348 350 341 347 345 343
141 134 288 239 209 151 99 226 146 159 153 160 158 182 142 123 102 112 120 119 113 110 114 113 108 102 82 90 92 25 337 16 44 37 359 357 340 322 340 347 347 347 343 332
104 108 194 173 41 164 172 184 153 162 163 140 107 117 117 117 118 122 125 121 120 110 110 116 117 97 103 102 153 5 19 42 2 308 264 43 304 310 339 352 352 345 348 344
170 203 225 175 196 190 137 145 158 148 144 124 133 127 121 123 126 129 124 119 107 113 115 126 131 124 124 157 82 21 146 213 280 296 287 318 291 305 315 322 327 325 339 334
61 264 237 136 64 97 116 119 138 134 139 142 134 129 119 121 120 119 126 123 115 116 115 127 152 156 154 147 63 56 102 262 275 287 293 290 287 279 290 294 295 286 300 308
286 340 66 24 121 117 110 114 109 117 136 140 129 122 124 127 132 134 125 118 131 128 133 149 163 153 150 148 148 120 303 287 277 280 280 287 278 246 270 262 223 249 233 234
227 240 135 188 125 128 124 128 126 122 121 129 133 130 131 130 137 137 141 140 124 130 132 165 173 148 124 94 180 283 311 282 298 295 301 295 289 309 227 246 275 255 234 205
251 276 104 105 92 117 117 127 127 129 132 132 120 123 129 135 141 142 140 141 144 154 156 168 158 131 24 308 340 315 282 319 326 318 304 299 292 253 296 317 291 299 277 231
148 122 70 4 124 108 110 110 102 101 112 119 117 123 133 128 130 140 150 157 156 144 145 151 136 25 329 21 16 316 278 230 235 267 269 279 285 283 257 264 297 310 319 287
33 5 97 106 98 102 109 115 110 127 118 112 119 127 135 139 138 147 152 151 137 127 135 132 114 286 272 219 340 320 333 324 318 286 273 260 267 286 280 292 277 281 309 325
75 101 123 122 126 132 132 130 118 119 122 123 129 134 134 127 128 148 162 148 131 152 161 164 223 245 265 254 271 292 288 284 289 297 292 265 274 304 307 298 283 274 290 272
146 154 129 125 144 142 137 127 128 133 128 136 140 133 129 132 135 157 170 172 153 153 169 185 238 277 275 270 277 281 292 305 308 311 289 270 279 289 287 289 289 282 263 255
183 169 162 147 151 145 132 130 133 136 148 144 137 141 138 146 167 184 177 162 128 141 226 236 248 263 272 266 262 270 274 283 300 294 281 294 286 278 278 264 266 273 281 284
147 148 140 149 150 139 133 133 143 138 140 144 146 159 161 159 165 171 150 147 153 240 270 238 254 266 275 271 258 262 269 282 289 281 263 279 288 275 269 257 265 285 282 281
129 132 129 140 135 135 132 133 129 138 151 148 139 137 150 169 167 148 154 181 205 217 265 270 243 261 272 277 275 247 254 271 271 261 268 271 270 271 275 280 271 269 276 281
137 138 143 135 128 130 130 136 135 142 144 146 152 161 167 170 172 148 125 155 257 236 245 265 236 260 267 269 252 246 244 257 263 265 277 282 297 293 286 290 290 278 282 271
136 132 131 132 125 118 131 132 126 129 135 135 134 136 139 163 172 185 156 183 264 258 267 266 260 252 253 269 261 260 260 257 268 277 278 287 298 306 321 314 302 306 301 295
121 121 123 126 129 126 119 126 131 140 143 142 145 152 154 182 184 152 231 243 238 256 247 252 250 268 286 295 278 274 267 255 259 276 289 294 12 6 330 326 325 330 332 336
115 118 112 116 122 123 125 124 134 138 145 149 149 148 145 175 253 242 255 253 249 257 250 257 267 272 278 271 262 264 274 284 312 222 111 61 26 343 345 342 343 348 8 23
121 118 123 127 131 128 126 130 115 123 126 132 148 161 176 197 162 268 235 248 246 245 261 261 274 290 288 266 266 263 236 129 145 127 95 74 14 354 345 8 24 22 25 21
124 127 128 135 133 138 138 137 135 134 131 157 176 168 175 197 250 285 266 267 270 273 276 288 267 261 255 261 134 133 151 130 108 117 102 41 359 348 343 20 21 21 24 17
105 113 109 92 97 135 138 131 137 157 160 171 175 185 185 226 251 258 252 271 279 279 270 273 269 268 111 140 141 135 127 111 126 134 93 356 8 0 34 35 30 22 14 8